Flag for U.S.A. Weather past 2 weeks in Brockton, Massachusetts, U.S.A.

Now
52 °F

Fog.


Feels Like: 52 °F
Forecast: 54 / 74 °F
Wind: No wind

Location: Taunton Municipal Airport

Current Time: Aug 20, 2014 at 11:24:22 PM

Latest Report: Aug 20, 2014 at 11:03 PM


Visibility: 3 mi

Pressure: 30.06 "Hg

Humidity: 97%

Dew point: 51 °F

Location of BrocktonLocation

Historic Weather in Brockton — Graph

°F

Brockton temperature yesterday

Maximum temperature yesterday: 80 °F (at 2:52 PM)
Minimum temperature yesterday: 44 °F (at 5:52 AM)
Average temperature yesterday: 62 °F

Past Weeks' High & Low Weather Summary

 TemperatureHumidityPressure
High85 °F (Aug 10, 12:52 PM)100% (Aug 10, 6:04 AM)30.15 "Hg (Aug 10, 6:04 AM)
Low44 °F (Aug 19, 5:52 AM)34% (Aug 10, 1:52 PM)29.61 "Hg (Aug 13, 7:52 PM)
Average66 °F74%29.93 "Hg
* Reported Aug 5 9:52 PM — Aug 20 9:52 PM, Brockton, Weather by CustomWeather, © 2014

Note: Actual official high and low records may vary slightly from our data, if they occured in-between our weather recording intervals... More about our weather records

Advertising

Brockton weather history for previous 24 hours

 ConditionsComfort  
Time TempWeatherWind HumidityBarometerVisibility
9:52 PM
Aug 20
54 °FFog.No wind93%30.04 "Hg1 mi
8:52 PM56 °FClear.No wind93%30.05 "Hg10 mi
7:52 PM62 °FSunny.No wind80%30.03 "Hg10 mi
6:52 PM73 °FSunny.6 mph53%30.01 "Hg10 mi
5:52 PM76 °FSunny.6 mph39%30.01 "Hg10 mi
4:52 PM78 °FSunny.8 mph36%30.00 "Hg10 mi
3:52 PM79 °FSunny.6 mph35%29.99 "Hg10 mi
2:52 PM81 °FSunny.8 mph42%29.98 "Hg10 mi
1:52 PM80 °FSunny.6 mph44%30.00 "Hg10 mi
12:52 PM80 °FScattered clouds.6 mph47%30.00 "Hg10 mi
11:52 AM80 °FSunny.5 mph47%30.01 "Hg10 mi
10:52 AM77 °FSunny.No wind56%30.01 "Hg10 mi
9:52 AM72 °FSunny.5 mph66%30.00 "Hg10 mi
8:52 AM67 °FSunny.No wind79%30.00 "Hg10 mi
8:00 AM60 °FFog.No wind93%30.00 "Hg3 mi
6:52 AM54 °FFog.No wind97%29.99 "Hg0 mi
5:52 AM51 °FFog.No wind96%29.98 "Hg0 mi
4:52 AM51 °FFog.No wind96%29.97 "Hg1 mi
4:01 AM51 °FFog.No wind96%29.97 "Hg2 mi
3:59 AM51 °FFog.No wind96%29.97 "Hg1 mi
3:02 AM51 °FFog.No wind96%29.96 "Hg1 mi
2:58 AM51 °FFog.No wind96%29.96 "Hg1 mi
1:52 AM53 °FFog.No wind93%29.96 "Hg4 mi
12:52 AM53 °FClear.No wind96%29.96 "Hg10 mi
11:52 PM
Aug 19
53 °FClear.No wind96%29.96 "Hg10 mi
Weather by CustomWeather, © 2014

See weather overviewHow to use our weather pages